TEVEL-3 (50988 NORAD) Tracking and Keplerian Element Data

This shows tracking and keplerian element data for the satellite.

Feedback or suggestion? Click here.




ElementValue
Catalog50988
NameTEVEL-3
Epoch Orbit4716
Epoch Day325.24444265
Epoch Year2022
RAAN29.6798
Inclination97.4648
Eccentricity0.0007947
Argument of Perigee234.9121
Mean Anonmoly168.3544
Mean Motion15.16894952
Decay Rate8.191E-05
L11 50988U 22002E 22325.24444265 .00008191 00000+0 41873-3 0 9995
L22 50988 97.4648 29.6798 0007947 234.9121 168.3544 15.16894952 47169



Live tracking and technical data element details for TEVEL-3 (NORAD 50988). TEVEL-3 can be tracked NOW for your location showing map with azimuth and elevation plus other details from your city location.







IsCatalogInMostPopularTable: catalog: 50988, numindb: 41
Update: records affected: 1



GetName: 50988 TEVEL-3

Hit Count: updated at: Mon, 28 Nov 2022 04:34:29 GMT